Regional Weather Roundup
Issued by NWS Goodland, KS

Home | Current Version | Previous Version | Graphics & Text | Print | Product List | Glossary On
Versions: 1 2 3 4 5 6 7 8 9 10 11 12 13 14 15 16 17 18 19 20 21 22 23 24 25 26 27 28 29 30 31 32 33 34 35 36 37 38 39 40 41 42 43 44 45 46 47 48 49 50
000
ASUS43 KGLD 181408
RWRGLD

GOODLAND FORECAST AREA HOURLY WEATHER ROUNDUP
NATIONAL WEATHER SERVICE GOODLAND KS
700 AM MST THU DEC 18 2014

...OFFICIAL OBSERVATIONS...

CITY           SKY/WX    TMP DP  RH WIND       PRES   REMARKS
GOODLAND KS    FOG       20  18  92 W5        30.07R VSB 1/2
HILL CITY KS   CLOUDY    26  24  92 CALM      30.16R
IMPERIAL NEB   CLOUDY    25  23  92 W6        30.07R
MCCOOK NEB     CLOUDY    23  21  92 S5        30.12R
AKRON CO       PTCLDY    20  17  88 W12       30.02R WCI   8
BURLINGTON CO  PTCLDY    13   9  84 W9        30.04R
LIMON CO       PTCLDY    14  12  92 N6        30.02R
$$

...UNOFFICIAL OBSERVATIONS...

CITY           SKY/WX    TMP DP  RH WIND       PRES   REMARKS
GOVE KS          N/A     28  32 100 MISG        N/A
SHARON SPRINGS   N/A     27  26  96 CALM        N/A
KIT CARSON CO    N/A     18  16  91 MISG        N/A
$$



USA.gov is the U.S. government's official web portal to all federal, state and local government web resources and services.